• Join FlightAware (Why Join?)
  • Login
  • US Flag GB Flag 
13:41 EDT


 

Airport Tracker/Info


-or-


 

Live Flight TrackerFlight Track Log ✈ JBU1329 ✈ 25-May-2013 ✈ KBOS - KBWI

Flight Track Log - Related Links

Times and Time Zones

All times are in EDT time to prevent confusion due to time zone crossing. See the JBU1329 flight status page for this flight to view local times or setup timezone preferences in your user account.

Time Position Orientation Groundspeed Altitude Reporting Facility
EDT Latitude Longitude Course Direction KTS MPH feet Rate Location/Type
09:12 42.3667 -70.9833 259° West 148 170 400  Level KA90
09:12 42.3667 -70.9667 90° East 147 169 900 1,800 Climbing KA90
09:14 42.3908 -70.8236 77° East 204 235 4,800 2,280 Climbing Boston Center
09:15 42.3647 -70.7317 111° Southeast 243 280 8,200 2,880 Climbing Boston Center
09:16 42.0025 -72.2012 258° West  Level FlightAware Approximate
09:16 42.2872 -70.7225 175° South 208 239 11,200  Level Boston Center
09:17 41.9884 -72.2978 259° West  Level FlightAware Approximate
09:17 42.2206 -70.8533 235° Southwest 232 267 14,900  Level Boston Center
09:18 42.2056 -70.9742 261° West 310 357 17,500 2,520 Climbing Boston Center
09:19 42.1906 -71.1119 262° West 341 392 20,000 2,220 Climbing Boston Center
09:20 42.1692 -71.2525 258° West 373 429 22,000 1,500 Climbing Boston Center
09:21 42.1475 -71.3983 259° West 395 455 23,000 780 Climbing Boston Center
09:22 42.1258 -71.5472 259° West 405 466 23,600 1,200 Climbing Boston Center
09:23 42.0978 -71.6958 256° West 410 472 25,500 1,740 Climbing Boston Center
09:24 42.0717 -71.8500 257° West 418 481 27,100 1,440 Climbing Boston Center
09:26 42.0181 -71.9847 242° Southwest 418 481 28,700 1,260 Climbing Boston Center
09:27 41.9478 -72.1386 238° Southwest 412 474 30,000 1,320 Climbing Boston Center
09:28 41.8856 -72.2756 239° Southwest 417 480 31,400 960 Climbing Boston Center
09:29 41.8231 -72.4094 238° Southwest 428 493 32,000 300 Climbing Boston Center
09:30 41.7606 -72.5514 239° Southwest 439 505 32,000  Level Boston Center
09:31 41.6894 -72.7042 238° Southwest 444 511 32,000  Level Boston Center
09:32 41.6264 -72.8456 239° Southwest 449 517 32,000  Level Boston Center
09:33 41.5614 -72.9839 238° Southwest 449 517 32,000  Level Boston Center
09:34 41.5064 -73.1053 239° Southwest 444 511 32,000  Level Boston Center
09:36 41.3678 -73.4003 238° Southwest 472 543 32,000  Level New York Center
09:37 41.3019 -73.5411 238° Southwest 466 536 32,000  Level New York Center
09:38 41.2300 -73.6733 234° Southwest 466 536 32,000  Level New York Center
09:39 41.1517 -73.8050 232° Southwest 461 531 32,000  Level New York Center
09:40 41.0733 -73.9336 231° Southwest 461 531 32,000 -600 Level New York Center
09:41 40.9969 -74.0647 232° Southwest 461 531 30,900 -1,260 Descending New York Center
09:42 40.9142 -74.1953 230° Southwest 456 525 29,500 -1,320 Descending New York Center
09:43 40.8417 -74.3178 232° Southwest 456 525 28,300 -780 Descending New York Center
09:44 40.7650 -74.4425 231° Southwest 451 519 28,000 -180 Descending New York Center
09:45 40.6881 -74.5697 231° Southwest 451 519 28,000 -420 Level New York Center
09:46 40.6153 -74.6914 232° Southwest 446 513 27,200 -1,200 Descending New York Center
09:47 40.5464 -74.8186 235° Southwest 436 502 25,700 -1,560 Descending New York Center
09:48 40.4881 -74.9406 238° Southwest 420 483 24,100 -1,740 Descending New York Center
09:49 40.4272 -75.0653 237° Southwest 409 471 22,300 -1,800 Descending New York Center
09:50 40.3667 -75.1811 236° Southwest 403 464 20,600 -1,860 Descending New York Center
09:51 40.3100 -75.2975 237° Southwest 397 457 18,700 -1,440 Descending New York Center
09:52 40.2436 -75.3992 229° Southwest 380 437 17,800 -480 Descending New York Center
09:53 40.1511 -75.4744 212° Southwest 381 438 17,800  Level New York Center
09:54 40.0711 -75.5422 213° Southwest 390 449 17,800  Level New York Center
09:55 39.9761 -75.6225 213° Southwest 385 443 17,800 -720 Level New York Center
09:56 39.9042 -75.6986 219° Southwest 385 443 16,400 -1,020 Descending New York Center
09:57 39.8431 -75.8133 235° Southwest 365 420 15,900 -300 Descending New York Center
09:58 39.7931 -75.9097 236° Southwest 360 414 15,900 -1,320 Level New York Center
10:00 39.6833 -76.1167 235° Southwest 314 361 12,100 -1,800 Descending Potomac TRACON
10:01 39.6500 -76.2000 243° Southwest 290 334 10,600 -1,620 Descending Potomac TRACON
10:02 39.6000 -76.2833 232° Southwest 291 335 8,900 -1,500 Descending Potomac TRACON
10:03 39.5667 -76.3833 247° West 276 318 7,500 -1,440 Descending Potomac TRACON
10:04 39.5000 -76.4500 218° Southwest 298 343 6,000 -780 Descending Potomac TRACON
10:05 39.4167 -76.4833 197° South 305 351 6,000 -300 Level Potomac TRACON
10:06 39.3500 -76.4500 159° South 305 351 5,500 -600 Descending Potomac TRACON
10:07 39.2667 -76.4167 163° South 300 345 4,900 -840 Descending Potomac TRACON
10:07 39.2000 -76.3833 159° South 294 338 4,000 -480 Descending Potomac TRACON
10:08 39.1333 -76.4000 191° South 268 308 4,000  Level Potomac TRACON
10:09 39.0667 -76.4167 191° South 238 274 4,000  Level Potomac TRACON
10:10 39.0333 -76.4667 229° Southwest 219 252 4,000 -480 Level Potomac TRACON
10:11 39.0333 -76.5333 270° West 188 216 3,100 -660 Descending Potomac TRACON
10:12 39.0667 -76.5667 322° Northwest 185 213 2,800 -840 Descending Potomac TRACON
10:13 39.1000 -76.6167 311° West 174 200 1,600 -1,080 Descending Potomac TRACON
10:14 39.1333 -76.6333 339° North 126 145 700 -900 Descending Potomac TRACON